Stündliche Wetter Abzakovo

Heute, 17 Juni, Donnerstag

Zeit Temperatur Niederschläge Wind Luftdruck Luftfeuchtigkeit
00:00 +16°C° 0 mm 1 m/S 713 mmHg 80%
01:00 +16°C° 0 mm 1 m/S 712 mmHg 79%
02:00 +16°C° 0 mm 1 m/S 712 mmHg 79%
03:00 +16°C° 0 mm 1 m/S 712 mmHg 79%
04:00 +18°C° 0 mm 1 m/S 711 mmHg 78%
05:00 +19°C° 0 mm 1 m/S 711 mmHg 74%
06:00 +21°C° 0 mm 1 m/S 711 mmHg 70%
07:00 +22°C° 0 mm 1 m/S 710 mmHg 67%
08:00 +24°C° 0 mm 2 m/S 710 mmHg 58%
09:00 +26°C° 0 mm 2 m/S 710 mmHg 50%
10:00 +28°C° 0 mm 3 m/S 710 mmHg 39%
11:00 +29°C° 0 mm 3 m/S 710 mmHg 38%
12:00 +29°C° 0 mm 4 m/S 710 mmHg 38%
13:00 +30°C° 0 mm 4 m/S 709 mmHg 37%
14:00 +28°C° 0.1 mm 5 m/S 709 mmHg 46%
15:00 +26°C° 0.1 mm 6 m/S 709 mmHg 56%
16:00 +23°C° 0 mm 7 m/S 709 mmHg 68%
17:00 +22°C° 0.1 mm 7 m/S 709 mmHg 72%
18:00 +21°C° 0.1 mm 7 m/S 709 mmHg 77%
19:00 +19°C° 0.1 mm 6 m/S 709 mmHg 81%
20:00 +17°C° 0 mm 6 m/S 710 mmHg 83%
21:00 +15°C° 0 mm 5 m/S 710 mmHg 84%
22:00 +13°C° 0 mm 4 m/S 711 mmHg 85%
23:00 +13°C° 0 mm 4 m/S 711 mmHg 85%

Morgen, 18 Juni, Freitag

Zeit Temperatur Niederschläge Wind Luftdruck Luftfeuchtigkeit
00:00 +12°C° 0 mm 3 m/S 711 mmHg 84%
01:00 +11°C° 0 mm 3 m/S 711 mmHg 84%
02:00 +11°C° 0 mm 3 m/S 711 mmHg 84%
03:00 +10°C° 0 mm 3 m/S 712 mmHg 83%
04:00 +10°C° 0 mm 3 m/S 712 mmHg 83%
05:00 +11°C° 0 mm 4 m/S 712 mmHg 75%
06:00 +12°C° 0 mm 4 m/S 713 mmHg 67%
07:00 +14°C° 0 mm 5 m/S 713 mmHg 58%
08:00 +15°C° 0 mm 5 m/S 714 mmHg 53%
09:00 +16°C° 0 mm 6 m/S 714 mmHg 48%
10:00 +17°C° 0 mm 6 m/S 714 mmHg 43%
11:00 +17°C° 0 mm 6 m/S 715 mmHg 42%
12:00 +17°C° 0 mm 6 m/S 715 mmHg 42%
13:00 +17°C° 0 mm 6 m/S 715 mmHg 41%
14:00 +17°C° 0 mm 6 m/S 716 mmHg 41%
15:00 +17°C° 0 mm 6 m/S 716 mmHg 40%
16:00 +17°C° 0 mm 6 m/S 716 mmHg 40%
17:00 +16°C° 0 mm 5 m/S 716 mmHg 43%
18:00 +15°C° 0 mm 5 m/S 717 mmHg 46%
19:00 +14°C° 0 mm 4 m/S 717 mmHg 48%
20:00 +12°C° 0 mm 3 m/S 717 mmHg 52%
21:00 +11°C° 0 mm 3 m/S 718 mmHg 57%
22:00 +9°C° 0 mm 2 m/S 718 mmHg 61%
23:00 +8°C° 0 mm 2 m/S 718 mmHg 62%

übermorgen, 19 Juni, Samstag

Zeit Temperatur Niederschläge Wind Luftdruck Luftfeuchtigkeit
00:00 +8°C° 0 mm 2 m/S 719 mmHg 63%
01:00 +7°C° 0 mm 2 m/S 719 mmHg 65%
02:00 +7°C° 0 mm 2 m/S 719 mmHg 65%
03:00 +7°C° 0 mm 2 m/S 719 mmHg 66%
04:00 +7°C° 0 mm 2 m/S 719 mmHg 66%
05:00 +9°C° 0 mm 2 m/S 719 mmHg 62%
06:00 +12°C° 0 mm 2 m/S 720 mmHg 57%
07:00 +14°C° 0 mm 2 m/S 720 mmHg 52%
08:00 +14°C° 0 mm 3 m/S 720 mmHg 50%
09:00 +17°C° 0 mm 4 m/S 719 mmHg 47%
10:00 +17°C° 0 mm 5 m/S 719 mmHg 45%
11:00 +16°C° 0 mm 5 m/S 719 mmHg 49%
12:00 +16°C° 0 mm 5 m/S 719 mmHg 53%
13:00 +15°C° 0 mm 6 m/S 719 mmHg 56%
14:00 +15°C° 0 mm 6 m/S 718 mmHg 59%
15:00 +15°C° 0 mm 6 m/S 718 mmHg 62%
16:00 +15°C° 0 mm 6 m/S 718 mmHg 65%
17:00 +15°C° 0 mm 6 m/S 717 mmHg 66%
18:00 +16°C° 0 mm 6 m/S 717 mmHg 67%
19:00 +17°C° 0 mm 7 m/S 717 mmHg 68%
20:00 +16°C° 0 mm 7 m/S 717 mmHg 72%
21:00 +16°C° 0 mm 6 m/S 716 mmHg 76%
22:00 +16°C° 0 mm 6 m/S 716 mmHg 80%
23:00 +15°C° 0 mm 6 m/S 716 mmHg 83%

20 Juni, Sonntag

Zeit Temperatur Niederschläge Wind Luftdruck Luftfeuchtigkeit
00:00 +15°C° 0 mm 6 m/S 715 mmHg 86%
01:00 +15°C° 0 mm 5 m/S 715 mmHg 89%
02:00 +15°C° 0 mm 5 m/S 715 mmHg 89%
03:00 +16°C° 0 mm 5 m/S 715 mmHg 89%
04:00 +16°C° 0 mm 5 m/S 714 mmHg 88%
05:00 +16°C° 0 mm 5 m/S 714 mmHg 87%
06:00 +16°C° 0 mm 5 m/S 714 mmHg 86%
07:00 +17°C° 0 mm 6 m/S 714 mmHg 85%
08:00 +19°C° 0 mm 6 m/S 714 mmHg 81%
09:00 +20°C° 0 mm 7 m/S 714 mmHg 76%
10:00 +21°C° 0 mm 7 m/S 714 mmHg 72%
11:00 +22°C° 0.1 mm 8 m/S 714 mmHg 71%
12:00 +22°C° 0.1 mm 8 m/S 714 mmHg 70%
13:00 +23°C° 0.1 mm 8 m/S 714 mmHg 69%
14:00 +23°C° 0.2 mm 8 m/S 714 mmHg 67%
15:00 +23°C° 0.2 mm 8 m/S 714 mmHg 64%
16:00 +24°C° 0.2 mm 7 m/S 714 mmHg 61%
17:00 +22°C° 0 mm 7 m/S 714 mmHg 59%
18:00 +21°C° 0 mm 6 m/S 714 mmHg 56%
19:00 +20°C° 0 mm 6 m/S 714 mmHg 54%
20:00 +17°C° 0 mm 5 m/S 715 mmHg 56%
21:00 +15°C° 0 mm 4 m/S 715 mmHg 59%
22:00 +13°C° 0 mm 4 m/S 716 mmHg 62%
23:00 +12°C° 0 mm 3 m/S 716 mmHg 64%

21 Juni, Montag

Zeit Temperatur Niederschläge Wind Luftdruck Luftfeuchtigkeit
00:00 +10°C° 0 mm 3 m/S 716 mmHg 67%
01:00 +9°C° 0 mm 2 m/S 716 mmHg 70%
02:00 +9°C° 0 mm 2 m/S 716 mmHg 71%
03:00 +8°C° 0 mm 2 m/S 716 mmHg 73%
04:00 +8°C° 0 mm 2 m/S 717 mmHg 75%
05:00 +9°C° 0 mm 2 m/S 717 mmHg 66%
06:00 +12°C° 0 mm 2 m/S 718 mmHg 58%
07:00 +14°C° 0 mm 2 m/S 718 mmHg 49%
08:00 +16°C° 0 mm 3 m/S 718 mmHg 43%
09:00 +17°C° 0 mm 3 m/S 718 mmHg 37%
10:00 +19°C° 0 mm 4 m/S 718 mmHg 31%
11:00 +20°C° 0 mm 4 m/S 718 mmHg 30%
12:00 +21°C° 0 mm 4 m/S 718 mmHg 30%
13:00 +22°C° 0 mm 4 m/S 718 mmHg 29%
14:00 +22°C° 0 mm 5 m/S 718 mmHg 31%
15:00 +22°C° 0 mm 5 m/S 718 mmHg 34%
16:00 +22°C° 0 mm 5 m/S 718 mmHg 36%
17:00 +21°C° 0 mm 4 m/S 718 mmHg 43%
18:00 +20°C° 0 mm 3 m/S 717 mmHg 49%
19:00 +19°C° 0 mm 3 m/S 717 mmHg 56%
20:00 +17°C° 0 mm 3 m/S 717 mmHg 63%
21:00 +15°C° 0 mm 2 m/S 717 mmHg 70%
22:00 +13°C° 0 mm 2 m/S 717 mmHg 77%
23:00 +13°C° 0 mm 2 m/S 716 mmHg 80%

22 Juni, Dienstag

Zeit Temperatur Niederschläge Wind Luftdruck Luftfeuchtigkeit
00:00 +12°C° 0 mm 2 m/S 716 mmHg 82%
01:00 +12°C° 0 mm 2 m/S 716 mmHg 84%
02:00 +12°C° 0.1 mm 2 m/S 715 mmHg 85%
03:00 +12°C° 0.1 mm 2 m/S 715 mmHg 85%
04:00 +12°C° 0.1 mm 2 m/S 715 mmHg 86%
05:00 +13°C° 0.1 mm 3 m/S 715 mmHg 84%
06:00 +16°C° 0.1 mm 3 m/S 715 mmHg 82%
07:00 +18°C° 0.1 mm 4 m/S 715 mmHg 80%
08:00 +20°C° 0 mm 5 m/S 715 mmHg 73%
09:00 +22°C° 0 mm 5 m/S 715 mmHg 66%
10:00 +23°C° 0 mm 5 m/S 714 mmHg 60%
11:00 +24°C° 0 mm 6 m/S 714 mmHg 56%
12:00 +26°C° 0 mm 6 m/S 714 mmHg 52%
13:00 +26°C° 0 mm 6 m/S 714 mmHg 48%
14:00 +26°C° 0.1 mm 6 m/S 714 mmHg 54%
15:00 +24°C° 0.1 mm 6 m/S 714 mmHg 60%
16:00 +23°C° 0.1 mm 6 m/S 714 mmHg 65%
17:00 +21°C° 1.5 mm 5 m/S 714 mmHg 74%
18:00 +19°C° 1.5 mm 4 m/S 714 mmHg 82%
19:00 +17°C° 1.5 mm 4 m/S 715 mmHg 90%
20:00 +16°C° 0.1 mm 3 m/S 715 mmHg 91%
21:00 +14°C° 0.1 mm 2 m/S 715 mmHg 91%
22:00 +13°C° 0.1 mm 1 m/S 716 mmHg 92%
23:00 +12°C° 0 mm 1 m/S 716 mmHg 92%
Mehr zeigen

Wir brauchen deine Erlaubnis

Meteoprog und unser Service Anbieter werden persönliche Daten aufbewahren, so wie Cookies, Geräte Bezeichnung oder ähnliche Technologien von deinem Gerät und Prozess, so wie Persönliche Daten Inhalte und Werbungen, genauso wie social Media und den Verkehr zu analysieren.

  • Aufbewahrung und/oder Zugang zu deiner Geräte Informationen.

    Cookies, Geräte Bezeichnung oder andere Informationen, können aufbewahrt oder Zugang zu deinem Gerät erhalten, für den Grund, der oben angegeben wird.

  • Personalisierte Werbung und Inhalte, Messungen, Einblick in das Publikum und Produkt Entwicklung.

    Werbungen und Inhalte können personalisiert werden, basierend auf ein Profil. Mehr Daten können besser personalisierte Werbungen und Inhalte hinzufügen. Werbung und Inhalte können gezeigt und gemessen werden. Einblicke über das Publikum, welche die Werbung gesehen haben und den Inhalt, können abgeleitet werden. So wie Daten können genutzt werden, um es zu verbessern oder die Benutzer Erfahrung zu verbessern das System und die Software.

Wenn du “Ich stimme zu” klickst, erlaubst du uns, die Cookies zu benutzen die Geräte Bezeichnung, den Web oder ähnliche Technologien zu benutzen. Deine Settings, können in deinem Gerät bei deinem Browser geändert werden.

Für den bestimmten Zweck, berechtigten Interessen beruhen darauf, mehr als auf den Inhalt. Du kannst mehr darüber in unseren Privaten und Cookie Politik lesen.